Location: Klinovec
(50.3970°N, 12.9600°E)
Time: 13:48:25
(UTC+01:00)

N. Korean satellite - Pass Details

Date: 21 November 2019
Orbit: 455 x 507 km, 97.2° (Epoch: 13 December)

Event Time Altitude Azimuth Distance (km) Brightness Sun altitude
Rises 18:29:15 0° 220° (SW) 2,577 10.9 -20.8°
Reaches altitude 10° 18:32:57 10° 259° (W) 1,714 10.5 -21.4°
Maximum altitude 18:33:51 11° 273° (W) 1,673 10.4 -21.5°
Drops below altitude 10° 18:34:45 10° 288° (WNW) 1,722 10.3 -21.6°
Sets 18:38:31 0° 327° (NNW) 2,622 10.7 -22.2°
